Location: ?????????
(41.2393°N, 22.9479°E)
Time: 05:21:53
(UTC+00:00)

Cosmos 2034 Rocket - Pass Details

Date: 17 November 2025
Orbit: 958 x 998 km, 82.9° (Epoch: 09 December)

Event Time Altitude Azimuth Distance (km) Brightness Sun altitude
Rises 17:27:10 0° 196° (SSW) 3,632 7.2 -26.2°
Reaches altitude 10° 17:29:41 10° 199° (SSW) 2,694 6.5 -26.7°
Maximum altitude 17:35:47 62° 280° (W) 1,086 4.4 -27.8°
Drops below altitude 10° 17:41:59 10° 1° (N) 2,738 6.3 -29.0°
Sets 17:44:34 0° 5° (N) 3,696 7.0 -29.5°
